| time (UTC) | temp F | wind direction | speed MPH | gust MPH | rain 1hr in | rain 24hr in | rain mn in | humidity % | barometer mb |
| 20260506204018 | 62 | 329 | 2.0 | 3.0 | 0.00 | 0.29 | 0.28 | 43 | 1016.2 |
| 20260506203022 | 62 | 1 | 2.0 | 6.0 | 0.00 | 0.29 | 0.28 | 42 | 1016.4 |
| 20260506202021 | 62 | 322 | 2.0 | 5.0 | 0.00 | 0.29 | 0.28 | 44 | 1016.4 |
| 20260506201111 | 62 | 329 | 2.0 | 3.0 | 0.00 | 0.30 | 0.28 | 42 | 1016.4 |
| 20260506200142 | 62 | 311 | 2.0 | 5.0 | 0.00 | 0.30 | 0.28 | 44 | 1016.5 |
| 20260506195031 | 62 | 8 | 2.0 | 5.0 | 0.00 | 0.30 | 0.28 | 43 | 1016.5 |
| 20260506194022 | 62 | 297 | 3.0 | 7.0 | 0.00 | 0.30 | 0.28 | 44 | 1016.5 |
| 20260506193031 | 63 | 330 | 2.0 | 4.0 | 0.00 | 0.30 | 0.28 | 44 | 1016.4 |
| 20260506192031 | 63 | 326 | 2.0 | 5.0 | 0.00 | 0.30 | 0.28 | 44 | 1016.4 |
| 20260506191031 | 63 | 299 | 2.0 | 5.0 | 0.00 | 0.30 | 0.28 | 43 | 1016.2 |
| 20260506190031 | 62 | 334 | 2.0 | 4.0 | 0.00 | 0.30 | 0.28 | 45 | 1016.2 |
| 20260506185031 | 61 | 329 | 2.0 | 4.0 | 0.00 | 0.30 | 0.28 | 47 | 1016.2 |
| 20260506184017 | 62 | 271 | 2.0 | 3.0 | 0.00 | 0.30 | 0.28 | 46 | 1016.1 |
| 20260506183017 | 61 | 294 | 1.0 | 3.0 | 0.00 | 0.30 | 0.28 | 49 | 1016.3 |
| 20260506182057 | 60 | 294 | 2.0 | 3.0 | 0.00 | 0.30 | 0.28 | 50 | 1016.5 |
| 20260506181017 | 60 | 316 | 1.0 | 3.0 | 0.00 | 0.30 | 0.28 | 52 | 1016.7 |
| 20260506180017 | 59 | 306 | 2.0 | 3.0 | 0.00 | 0.30 | 0.28 | 54 | 1016.7 |
| 20260506175032 | 59 | 322 | 2.0 | 4.0 | 0.00 | 0.30 | 0.28 | 55 | 1016.6 |
| 20260506174032 | 58 | 309 | 2.0 | 4.0 | 0.00 | 0.30 | 0.28 | 57 | 1016.6 |
| 20260506173033 | 57 | 19 | 2.0 | 5.0 | 0.00 | 0.30 | 0.28 | 61 | 1016.7 |
| 20260506172019 | 57 | 263 | 2.0 | 3.0 | 0.00 | 0.30 | 0.28 | 66 | 1016.8 |
| 20260506171018 | 56 | 328 | 3.0 | 6.0 | 0.00 | 0.30 | 0.28 | 66 | 1016.8 |
| 20260506170018 | 56 | 358 | 4.0 | 8.0 | 0.00 | 0.31 | 0.28 | 67 | 1016.8 |
| 20260506165018 | 56 | 278 | 3.0 | 4.0 | 0.00 | 0.31 | 0.28 | 71 | 1016.8 |
| 20260506164018 | 55 | 271 | 3.0 | 6.0 | 0.00 | 0.31 | 0.28 | 72 | 1016.8 |
| 20260506163018 | 54 | 270 | 3.0 | 5.0 | 0.00 | 0.31 | 0.28 | 73 | 1016.8 |
| 20260506162018 | 54 | 285 | 3.0 | 5.0 | 0.00 | 0.31 | 0.28 | 74 | 1016.7 |
| 20260506161018 | 54 | 253 | 3.0 | 5.0 | 0.00 | 0.31 | 0.28 | 76 | 1016.5 |
| 20260506160138 | 54 | 339 | 5.0 | 7.0 | 0.00 | 0.31 | 0.28 | 79 | 1016.4 |
| 20260506155018 | 54 | 338 | 4.0 | 6.0 | 0.00 | 0.31 | 0.28 | 79 | 1016.2 |
| 20260506154018 | 54 | 263 | 3.0 | 5.0 | 0.00 | 0.31 | 0.28 | 81 | 1016.2 |
| 20260506153018 | 53 | 245 | 4.0 | 5.0 | 0.00 | 0.31 | 0.28 | 83 | 1016.1 |
| 20260506152019 | 53 | 255 | 4.0 | 6.0 | 0.00 | 0.31 | 0.28 | 84 | 1016.2 |
| 20260506151017 | 52 | 261 | 3.0 | 4.0 | 0.00 | 0.31 | 0.28 | 84 | 1016.0 |
| 20260506150057 | 52 | 258 | 4.0 | 5.0 | 0.00 | 0.31 | 0.28 | 86 | 1016.0 |
| 20260506145017 | 51 | 286 | 4.0 | 6.0 | 0.00 | 0.31 | 0.28 | 87 | 1015.9 |
| 20260506144019 | 51 | 295 | 3.0 | 6.0 | 0.00 | 0.31 | 0.28 | 89 | 1016.1 |
| 20260506143025 | 50 | 261 | 3.0 | 5.0 | 0.00 | 0.31 | 0.28 | 91 | 1016.1 |
| 20260506142019 | 50 | 268 | 3.0 | 4.0 | 0.00 | 0.31 | 0.28 | 92 | 1016.2 |
| 20260506141059 | 50 | 338 | 3.0 | 4.0 | 0.00 | 0.31 | 0.28 | 93 | 1016.2 |
| 20260506140017 | 49 | 284 | 3.0 | 4.0 | 0.00 | 0.31 | 0.28 | 94 | 1016.2 |
| 20260506135018 | 49 | 332 | 3.0 | 7.0 | 0.00 | 0.31 | 0.28 | 95 | 1016.1 |
| 20260506134059 | 48 | 317 | 3.0 | 3.0 | 0.00 | 0.31 | 0.28 | 96 | 1016.2 |
| 20260506133058 | 48 | 282 | 2.0 | 3.0 | 0.00 | 0.31 | 0.28 | 96 | 1016.2 |
| 20260506132018 | 48 | 348 | 2.0 | 4.0 | 0.00 | 0.31 | 0.28 | 96 | 1016.1 |
| 20260506131018 | 48 | 312 | 3.0 | 4.0 | 0.00 | 0.34 | 0.28 | 97 | 1016.0 |
| 20260506130018 | 48 | 293 | 2.0 | 3.0 | 0.00 | 0.35 | 0.28 | 97 | 1015.9 |
| 20260506125020 | 48 | 286 | 2.0 | 3.0 | 0.00 | 0.36 | 0.28 | 97 | 1016.0 |
| 20260506124018 | 47 | 325 | 3.0 | 3.0 | 0.00 | 0.40 | 0.28 | 97 | 1016.0 |
| 20260506123059 | 47 | 268 | 3.0 | 3.0 | 0.00 | 0.40 | 0.28 | 97 | 1016.0 |
| 20260506122018 | 47 | 309 | 2.0 | 3.0 | 0.00 | 0.40 | 0.28 | 97 | 1015.9 |
| 20260506121059 | 47 | 358 | 2.0 | 3.0 | 0.00 | 0.40 | 0.28 | 97 | 1015.8 |
| 20260506120059 | 47 | 320 | 2.0 | 4.0 | 0.00 | 0.40 | 0.28 | 97 | 1015.9 |
| 20260506115019 | 47 | 352 | 3.0 | 3.0 | 0.00 | 0.41 | 0.28 | 97 | 1015.9 |
| 20260506114059 | 47 | 323 | 2.0 | 3.0 | 0.00 | 0.41 | 0.28 | 97 | 1015.8 |
| 20260506113019 | 47 | 343 | 3.0 | 3.0 | 0.00 | 0.42 | 0.28 | 97 | 1015.5 |
| 20260506112100 | 47 | 346 | 3.0 | 3.0 | 0.00 | 0.42 | 0.28 | 97 | 1015.2 |
| 20260506111019 | 47 | 279 | 2.0 | 3.0 | 0.00 | 0.42 | 0.28 | 97 | 1014.7 |
| 20260506110020 | 47 | 320 | 2.0 | 3.0 | 0.00 | 0.42 | 0.28 | 97 | 1014.7 |
| 20260506105020 | 47 | 352 | 3.0 | 3.0 | 0.00 | 0.42 | 0.28 | 97 | 1014.1 |
| 20260506104100 | 47 | 321 | 2.0 | 3.0 | 0.00 | 0.42 | 0.28 | 97 | 1013.9 |
| 20260506103100 | 47 | 353 | 2.0 | 3.0 | 0.00 | 0.42 | 0.28 | 97 | 1014.3 |
| 20260506102020 | 47 | 291 | 2.0 | 2.0 | 0.00 | 0.42 | 0.28 | 97 | 1014.2 |
| 20260506101022 | 47 | 279 | 2.0 | 2.0 | 0.00 | 0.42 | 0.28 | 97 | 1014.2 |
| 20260506100020 | 47 | 279 | 2.0 | 3.0 | 0.00 | 0.42 | 0.28 | 97 | 1014.0 |
| 20260506095020 | 47 | 299 | 2.0 | 3.0 | 0.00 | 0.50 | 0.28 | 97 | 1013.8 |
| 20260506094020 | 47 | 284 | 2.0 | 3.0 | 0.00 | 0.52 | 0.28 | 97 | 1013.9 |
| 20260506093101 | 47 | 284 | 2.0 | 3.0 | 0.00 | 0.52 | 0.28 | 97 | 1014.0 |
| 20260506092021 | 47 | 339 | 2.0 | 3.0 | 0.00 | 0.52 | 0.28 | 97 | 1014.4 |
| 20260506091021 | 47 | 351 | 2.0 | 3.0 | 0.00 | 0.52 | 0.28 | 97 | 1014.5 |
| 20260506090021 | 47 | 336 | 2.0 | 3.0 | 0.00 | 0.52 | 0.28 | 97 | 1014.4 |
| 20260506085021 | 47 | 321 | 2.0 | 2.0 | 0.00 | 0.52 | 0.28 | 96 | 1014.1 |
| 20260506084101 | 47 | 290 | 2.0 | 3.0 | 0.00 | 0.52 | 0.28 | 96 | 1013.9 |
| 20260506083021 | 47 | 299 | 2.0 | 3.0 | 0.00 | 0.52 | 0.28 | 96 | 1013.9 |
| 20260506082021 | 47 | 301 | 2.0 | 3.0 | 0.00 | 0.52 | 0.28 | 96 | 1013.9 |
| 20260506081022 | 47 | 1 | 2.0 | 3.0 | 0.00 | 0.53 | 0.28 | 96 | 1013.8 |
| 20260506073022 | 47 | 352 | 2.0 | 3.0 | 0.01 | 0.54 | 0.28 | 96 | 1013.6 |
| 20260506072022 | 47 | 265 | 2.0 | 3.0 | 0.02 | 0.54 | 0.28 | 96 | 1013.9 |
| 20260506071022 | 47 | 329 | 2.0 | 3.0 | 0.03 | 0.54 | 0.28 | 96 | 1014.2 |
| 20260506062023 | 47 | 273 | 2.0 | 3.0 | 0.02 | 0.53 | 0.26 | 96 | 1013.4 |
| 20260506061023 | 47 | 1 | 2.0 | 3.0 | 0.01 | 0.52 | 0.25 | 96 | 1013.5 |
| 20260506051024 | 47 | 289 | 2.0 | 3.0 | 0.02 | 0.50 | 0.24 | 96 | 1013.5 |
| 20260506045024 | 47 | 315 | 2.0 | 3.0 | 0.01 | 0.49 | 0.23 | 95 | 1013.2 |
| 20260506044104 | 47 | 340 | 2.0 | 3.0 | 0.01 | 0.49 | 0.23 | 95 | 1013.2 |
| 20260506043024 | 47 | 306 | 2.0 | 3.0 | 0.01 | 0.49 | 0.22 | 95 | 1013.7 |
| 20260506042104 | 46 | 269 | 2.0 | 3.0 | 0.01 | 0.49 | 0.22 | 95 | 1013.5 |
| 20260506041025 | 46 | 316 | 2.0 | 2.0 | 0.01 | 0.48 | 0.22 | 95 | 1013.5 |
| 20260506040025 | 46 | 293 | 2.0 | 2.0 | 0.00 | 0.48 | 0.21 | 95 | 1013.6 |
| 20260506035025 | 46 | 313 | 2.0 | 2.0 | 0.00 | 0.48 | 0.21 | 95 | 1013.7 |
| 20260506034025 | 46 | 316 | 2.0 | 2.0 | 0.00 | 0.48 | 0.21 | 95 | 1013.7 |
| 20260506033027 | 46 | 271 | 2.0 | 2.0 | 0.00 | 0.48 | 0.21 | 95 | 1013.2 |
| 20260506032025 | 46 | 267 | 2.0 | 2.0 | 0.00 | 0.48 | 0.21 | 95 | 1013.1 |
| 20260506031105 | 46 | 297 | 1.0 | 2.0 | 0.02 | 0.48 | 0.21 | 95 | 1013.0 |
| 20260506030025 | 46 | 346 | 2.0 | 3.0 | 0.02 | 0.48 | 0.21 | 95 | 1012.6 |
| 20260506025026 | 46 | 13 | 2.0 | 3.0 | 0.04 | 0.48 | 0.21 | 95 | 1012.6 |
| 20260506024025 | 46 | 3 | 2.0 | 3.0 | 0.06 | 0.48 | 0.21 | 95 | 1013.0 |
| 20260506023026 | 46 | 359 | 2.0 | 3.0 | 0.07 | 0.48 | 0.21 | 95 | 1012.7 |
| 20260506022026 | 46 | 18 | 2.0 | 2.0 | 0.08 | 0.48 | 0.21 | 94 | 1012.7 |
| 20260506021026 | 46 | 276 | 2.0 | 3.0 | 0.07 | 0.46 | 0.20 | 94 | 1013.1 |
| 20260506015026 | 46 | 296 | 1.0 | 3.0 | 0.09 | 0.44 | 0.17 | 94 | 1012.9 |
| 20260506014026 | 46 | 44 | 2.0 | 3.0 | 0.08 | 0.42 | 0.16 | 94 | 1012.0 |
| 20260506013106 | 46 | 341 | 2.0 | 3.0 | 0.07 | 0.41 | 0.14 | 94 | 1012.6 |
| 20260506011027 | 46 | 324 | 2.0 | 4.0 | 0.05 | 0.39 | 0.13 | 93 | 1012.2 |
| 20260506010107 | 46 | 355 | 2.0 | 4.0 | 0.02 | 0.36 | 0.10 | 93 | 1011.9 |
| 20260506005026 | 47 | 308 | 2.0 | 3.0 | 0.01 | 0.35 | 0.09 | 93 | 1012.1 |
| 20260506004027 | 47 | 326 | 2.0 | 3.0 | 0.01 | 0.34 | 0.08 | 93 | 1011.7 |
| 20260506003027 | 47 | 345 | 2.0 | 3.0 | 0.01 | 0.34 | 0.08 | 93 | 1011.8 |
| 20260506002107 | 47 | 338 | 3.0 | 4.0 | 0.06 | 0.34 | 0.08 | 93 | 1011.6 |
| 20260506001023 | 48 | 329 | 2.0 | 5.0 | 0.08 | 0.34 | 0.08 | 92 | 1011.3 |
| 20260506000029 | 48 | 12 | 3.0 | 4.0 | 0.07 | 0.34 | 0.07 | 92 | 1011.5 |
| 20260505235017 | 48 | 327 | 3.0 | 5.0 | 0.07 | 0.34 | 0.07 | 92 | 1011.1 |
| 20260505234057 | 49 | 356 | 3.0 | 5.0 | 0.07 | 0.33 | 0.07 | 91 | 1010.9 |
| 20260505233017 | 49 | 341 | 4.0 | 6.0 | 0.07 | 0.33 | 0.07 | 91 | 1011.0 |
| 20260505232018 | 49 | 345 | 3.0 | 5.0 | 0.02 | 0.29 | 0.02 | 90 | 1010.9 |
| 20260505231023 | 49 | 4 | 3.0 | 6.0 | 0.00 | 0.26 | 0.00 | 89 | 1010.5 |
| 20260505230027 | 49 | 278 | 2.0 | 3.0 | 0.00 | 0.26 | 0.00 | 89 | 1010.7 |
| 20260505225027 | 50 | 3 | 3.0 | 4.0 | 0.00 | 0.26 | 0.26 | 89 | 1010.4 |
| 20260505224028 | 50 | 31 | 2.0 | 3.0 | 0.00 | 0.26 | 0.26 | 89 | 1009.9 |
| 20260505223028 | 49 | 357 | 3.0 | 4.0 | 0.00 | 0.26 | 0.26 | 89 | 1010.5 |
| 20260505222028 | 49 | 13 | 3.0 | 4.0 | 0.00 | 0.26 | 0.26 | 89 | 1010.5 |
| 20260505221018 | 49 | 355 | 3.0 | 7.0 | 0.00 | 0.26 | 0.26 | 89 | 1010.3 |
| 20260505220108 | 49 | 17 | 3.0 | 4.0 | 0.00 | 0.26 | 0.26 | 89 | 1010.3 |
| 20260505215028 | 49 | 310 | 3.0 | 4.0 | 0.01 | 0.26 | 0.26 | 90 | 1010.6 |
| 20260505214028 | 49 | 355 | 3.0 | 4.0 | 0.01 | 0.26 | 0.26 | 90 | 1010.6 |
| 20260505213109 | 49 | 349 | 3.0 | 5.0 | 0.01 | 0.26 | 0.26 | 90 | 1010.3 |
| 20260505212029 | 49 | 1 | 3.0 | 5.0 | 0.01 | 0.26 | 0.26 | 90 | 1010.8 |
| 20260505211029 | 49 | 317 | 3.0 | 4.0 | 0.01 | 0.26 | 0.26 | 89 | 1011.2 |
| 20260505210028 | 50 | 352 | 3.0 | 5.0 | 0.02 | 0.26 | 0.26 | 88 | 1011.2 |
| 20260505205018 | 50 | 14 | 4.0 | 8.0 | 0.01 | 0.26 | 0.26 | 87 | 1011.2 |